Probability
0 0 0 0 0 0 0 0 0 0 0 0 0 0 0 0 0 0 0 0 0 0 0 0 0 0 0 0 3 3 0 0 0 0 0 0 0 0 0 0 0 0 0 0
0 0 0 0 0 0 0 0 0 0 0 0 0 0 0 0 0 0 0 0 0 0 0 0 0 0 0 0 0 3 3 0 0 0 0 0 0 0 0 0 0 0 0 0
0 0 0 0 0 0 0 0 0 0 0 0 0 0 0 0 0 0 0 0 0 0 0 0 0 0 0 0 0 0 3 0 0 0 0 0 0 0 0 0 0 0 0 0
0 0 0 0 0 0 0 0 0 0 0 0 0 0 0 0 0 0 0 0 0 0 0 0 0 0 0 0 0 0 0 0 0 0 0 0 0 0 0 0 0 0 0 0
0 0 0 0 0 0 0 0 0 0 0 0 0 0 0 0 0 0 0 0 0 0 0 0 0 0 0 0 0 0 0 0 0 0 0 0 0 0 0 0 0 0 0 0
0 0 0 0 0 0 0 0 0 0 0 0 0 0 0 0 0 0 0 0 0 0 0 0 0 0 0 0 0 0 0 0 0 0 0 0 0 0 0 0 0 0 0 0
0 0 0 0 0 0 0 0 0 0 0 0 0 0 0 0 0 0 0 0 0 0 0 0 0 0 0 0 0 0 0 0 0 0 0 0 0 0 0 0 0 0 0 0
0 0 0 0 0 0 0 0 0 0 0 0 0 0 0 0 0 0 0 0 0 0 0 0 0 0 0 0 0 0 0 0 0 0 0 0 0 0 0 0 0 0 0 0
0 0 0 0 0 0 0 0 0 0 0 0 0 0 0 0 0 0 0 0 0 0 0 0 0 0 0 0 0 0 0 0 0 0 0 0 0 0 0 0 0 0 0 0
0 0 0 0 0 0 0 0 0 0 0 0 0 0 0 0 0 0 0 0 0 0 0 0 0 0 0 0 0 0 0 0 0 0 0 0 0 0 0 0 0 0 0 0
0 0 0 0 0 0 0 0 0 0 0 0 0 0 0 0 0 0 0 0 0 0 0 0 0 0 0 0 0 0 0 0 0 0 0 0 0 0 0 0 0 0 0 0
0 0 0 0 0 0 0 0 0 0 0 0 0 0 0 0 0 0 0 0 0 0 0 0 0 0 0 0 0 0 0 0 0 0 0 0 0 0 0 0 0 0 0 0
0 0 0 0 0 0 0 0 0 0 0 0 0 0 0 0 0 0 0 0 0 0 0 0 0 0 0 0 0 0 0 0 0 0 0 0 0 0 0 0 0 0 0 0
0 0 0 0 0 0 0 0 0 0 0 0 0 0 0 0 0 0 0 0 0 0 0 0 0 0 0 0 0 0 0 0 0 0 0 0 0 0 0 0 0 0 0 0
0 0 0 0 0 0 0 0 0 0 0 0 0 0 0 0 0 0 0 0 0 0 0 0 0 0 0 0 0 0 0 0 0 0 0 0 0 0 0 0 0 0 0 0
0 0 0 0 0 0 0 0 0 0 0 0 0 0 0 0 0 0 0 0 0 0 0 0 0 0 0 0 0 0 0 0 0 0 0 0 0 0 0 0 0 0 0 0
0 0 0 0 0 0 0 0 0 0 0 0 0 0 0 0 0 0 0 0 0 0 0 0 0 0 0 0 0 0 0 0 0 0 0 0 0 0 0 0 0 0 0 0
0 0 0 0 0 0 0 0 0 0 0 0 0 0 0 0 0 0 0 0 0 0 0 0 0 0 0 0 0 0 0 0 0 0 0 0 0 0 0 0 0 0 0 0
0 0 0 0 0 0 0 0 0 0 0 0 0 0 0 0 0 0 0 0 0 0 0 0 0 0 0 0 0 0 0 0 0 0 0 0 0 0 0 0 0 0 0 0
0 0 0 0 0 0 0 0 0 0 0 0 0 0 0 0 0 0 0 0 0 0 0 0 0 0 0 0 0 0 0 0 0 0 0 0 0 0 0 0 0 0 0 0
0 0 0 0 0 0 0 0 0 0 0 0 0 0 0 0 0 0 0 0 0 0 0 0 0 0 0 0 0 0 0 0 0 0 0 0 0 0 0 0 0 0 0 0
0 0 0 0 0 0 0 0 0 0 0 0 0 0 0 0 0 0 0 0 0 0 0 0 0 0 0 0 0 0 0 0 0 0 0 0 0 0 0 0 0 0 0 0
0 0 0 0 0 0 0 0 0 0 0 0 0 0 0 0 0 0 0 0 0 0 0 0 0 0 0 0 0 0 0 0 0 0 0 0 0 0 0 0 0 0 0 0
0 0 0 0 0 0 0 0 0 0 0 0 0 0 0 0 0 0 0 0 0 0 0 0 0 0 0 0 0 0 0 0 0 0 0 0 0 0 0 0 0 0 0 0
0 0 0 0 0 0 0 0 0 0 0 0 0 0 0 0 0 0 0 0 0 0 0 0 0 0 0 0 0 0 0 0 0 0 0 0 0 0 0 0 0 0 0 0
0 0 0 0 0 0 0 0 0 0 0 0 0 0 0 0 0 0 0 0 0 0 0 0 0 0 0 0 0 0 0 0 0 0 0 0 0 0 0 0 0 0 0 0
0 0 0 0 0 0 0 0 0 0 0 0 0 0 0 0 0 0 0 0 0 0 0 0 0 0 0 0 0 0 0 0 0 0 0 0 0 0 0 0 0 0 0 0
Height
5801 5802 5802 5803 5803 5803 5804 5804 5804 5804 5804 5804 5803 5803 5802 5802 5801 5800 5799 5798 5798 5797 5796 5795 5794 5793 5792 5791 5789 5788 5787 5786 5784 5783 5782 5780 5779 5778 5776 5775 5774 5773 5771 5770
5796 5796 5797 5797 5798 5798 5798 5798 5798 5798 5798 5798 5797 5796 5796 5796 5795 5794 5794 5793 5792 5791 5790 5789 5788 5787 5786 5785 5783 5782 5780 5779 5777 5776 5775 5773 5772 5771 5769 5768 5766 5765 5764 5764
5790 5791 5791 5792 5793 5793 5793 5793 5792 5792 5793 5791 5791 5790 5790 5789 5789 5788 5787 5786 5786 5784 5784 5783 5782 5781 5780 5778 5777 5775 5774 5772 5770 5769 5767 5766 5764 5763 5762 5760 5759 5758 5757 5756
5784 5785 5785 5789 5787 5787 5787 5786 5786 5786 5786 5785 5785 5784 5783 5783 5782 5781 5781 5780 5779 5778 5777 5776 5775 5774 5773 5771 5770 5768 5766 5765 5763 5761 5760 5758 5756 5755 5754 5752 5751 5750 5749 5748
5778 5778 5779 5781 5781 5780 5780 5780 5780 5779 5779 5778 5778 5778 5777 5776 5776 5775 5774 5773 5772 5771 5770 5769 5768 5766 5765 5763 5762 5761 5759 5757 5755 5754 5752 5750 5749 5747 5745 5744 5743 5742 5741 5740
5771 5772 5773 5776 5775 5773 5774 5774 5774 5772 5772 5771 5771 5771 5771 5770 5769 5768 5767 5766 5765 5764 5763 5761 5760 5758 5757 5755 5754 5752 5751 5749 5747 5745 5744 5742 5740 5739 5737 5736 5735 5734 5733 5733
5765 5765 5766 5768 5767 5767 5768 5768 5767 5765 5765 5764 5764 5764 5763 5762 5761 5761 5760 5759 5757 5756 5755 5754 5752 5750 5749 5747 5745 5744 5742 5740 5738 5737 5735 5733 5732 5730 5729 5727 5726 5726 5725 5725
5757 5758 5762 5761 5760 5761 5761 5760 5759 5758 5758 5757 5757 5756 5755 5755 5754 5753 5752 5751 5750 5748 5747 5745 5744 5742 5741 5739 5737 5735 5733 5731 5730 5728 5726 5725 5723 5722 5720 5719 5718 5717 5717 5716
5751 5753 5753 5753 5753 5753 5752 5752 5752 5751 5751 5750 5749 5749 5748 5747 5746 5745 5744 5743 5742 5740 5739 5737 5735 5733 5732 5730 5728 5726 5724 5722 5720 5719 5717 5715 5714 5713 5712 5710 5709 5709 5708 5707
5743 5744 5745 5745 5744 5745 5745 5745 5744 5744 5743 5742 5742 5741 5740 5739 5738 5736 5735 5734 5733 5731 5730 5728 5726 5724 5723 5721 5719 5717 5715 5713 5711 5710 5708 5706 5705 5704 5703 5701 5700 5700 5699 5699
5734 5735 5736 5736 5736 5736 5737 5736 5736 5736 5735 5734 5733 5732 5731 5730 5729 5727 5726 5725 5724 5722 5721 5719 5717 5715 5713 5711 5710 5708 5706 5704 5702 5700 5698 5696 5695 5694 5693 5692 5691 5690 5690 5689
5726 5727 5727 5728 5728 5728 5728 5728 5728 5727 5727 5726 5724 5723 5722 5721 5720 5718 5717 5716 5714 5713 5711 5709 5707 5706 5704 5702 5700 5698 5696 5694 5692 5691 5689 5687 5686 5685 5683 5682 5681 5680 5679 5679
5716 5717 5718 5719 5719 5719 5719 5719 5719 5718 5718 5717 5716 5714 5713 5712 5710 5709 5707 5706 5704 5703 5701 5699 5697 5696 5694 5692 5689 5687 5685 5684 5682 5680 5678 5677 5675 5674 5674 5673 5671 5670 5669 5669
5707 5708 5709 5709 5710 5710 5710 5710 5709 5709 5708 5707 5706 5704 5703 5702 5700 5698 5697 5695 5694 5692 5690 5689 5687 5685 5683 5681 5679 5677 5675 5673 5671 5669 5667 5666 5665 5664 5663 5662 5662 5661 5660 5659
5698 5698 5699 5700 5700 5700 5700 5700 5700 5699 5698 5697 5696 5695 5693 5691 5690 5688 5686 5684 5683 5681 5679 5678 5676 5674 5672 5670 5668 5666 5664 5662 5660 5658 5657 5655 5654 5653 5652 5652 5651 5651 5650 5649
5688 5688 5689 5690 5690 5690 5690 5690 5690 5689 5688 5687 5686 5684 5683 5681 5679 5677 5675 5673 5671 5670 5668 5666 5665 5663 5661 5659 5657 5655 5653 5651 5649 5648 5646 5645 5644 5643 5642 5641 5641 5640 5640 5639
5678 5679 5679 5680 5680 5680 5680 5680 5680 5679 5678 5677 5675 5674 5672 5670 5668 5667 5665 5663 5660 5659 5657 5655 5653 5651 5649 5647 5645 5644 5642 5640 5639 5637 5635 5634 5633 5632 5631 5631 5630 5629 5629 5628
5668 5669 5669 5670 5670 5670 5670 5669 5669 5668 5667 5666 5664 5663 5661 5659 5658 5656 5654 5651 5649 5647 5645 5643 5641 5639 5637 5635 5633 5632 5631 5629 5628 5626 5625 5624 5623 5622 5621 5620 5620 5619 5618 5617
5658 5659 5659 5660 5660 5660 5659 5659 5658 5657 5656 5655 5653 5651 5650 5648 5646 5644 5642 5639 5638 5636 5634 5632 5629 5627 5625 5623 5622 5620 5619 5618 5616 5615 5614 5613 5612 5611 5610 5610 5609 5608 5607 5607
5648 5649 5649 5649 5649 5649 5649 5648 5647 5646 5645 5644 5642 5640 5638 5636 5634 5632 5630 5628 5626 5624 5622 5620 5618 5616 5614 5612 5610 5609 5608 5606 5605 5604 5603 5602 5601 5600 5599 5599 5598 5597 5596 5596
5639 5639 5639 5639 5639 5639 5638 5637 5636 5635 5634 5633 5631 5629 5627 5625 5623 5621 5619 5617 5616 5613 5612 5610 5608 5606 5604 5602 5600 5598 5597 5595 5594 5593 5592 5591 5590 5590 5589 5588 5587 5586 5585 5585
5629 5630 5630 5630 5629 5629 5628 5627 5626 5625 5623 5622 5620 5618 5617 5615 5613 5610 5608 5606 5605 5603 5601 5599 5597 5595 5593 5591 5589 5587 5586 5584 5583 5582 5581 5580 5579 5579 5578 5577 5576 5575 5574 5574
5620 5620 5620 5620 5620 5619 5618 5617 5616 5615 5613 5612 5610 5608 5606 5605 5602 5601 5599 5597 5595 5593 5591 5589 5587 5585 5583 5580 5578 5577 5575 5574 5572 5571 5570 5569 5568 5567 5566 5566 5565 5564 5563 5563
5610 5610 5610 5610 5609 5609 5608 5607 5606 5605 5603 5602 5600 5598 5597 5595 5593 5591 5589 5587 5585 5583 5581 5579 5576 5574 5572 5570 5568 5566 5564 5563 5561 5560 5559 5558 5557 5556 5555 5555 5554 5553 5552 5551
5600 5600 5600 5600 5599 5599 5598 5597 5596 5595 5594 5592 5591 5589 5587 5585 5583 5582 5579 5577 5575 5573 5571 5569 5567 5565 5563 5560 5558 5556 5554 5552 5551 5550 5548 5547 5546 5545 5545 5544 5543 5542 5542 5541
5591 5591 5590 5590 5590 5589 5588 5587 5586 5585 5584 5583 5581 5579 5578 5576 5574 5572 5570 5568 5566 5563 5561 5559 5557 5555 5553 5551 5548 5546 5544 5542 5541 5539 5538 5537 5536 5535 5535 5534 5533 5532 5531 5530
5581 5581 5581 5580 5580 5579 5579 5578 5577 5576 5574 5573 5572 5570 5568 5566 5565 5563 5561 5559 5557 5554 5552 5550 5548 5546 5544 5541 5539 5536 5534 5533 5531 5530 5528 5527 5526 5526 5525 5524 5523 5522 5521 5520
Wind_Speed
21 20 20 19 19 20 21 21 21 21 21 20 20 21 21 21 22 22 22 22 22 21 22 22 22 22 23 22 23 23 23 24 24 24 24 24 24 24 24 24 23 23 23 22
22 22 22 21 20 20 21 22 22 22 21 21 21 21 21 22 22 22 22 23 22 22 22 22 22 23 23 24 24 24 25 26 26 26 25 25 24 25 25 25 25 24 24 24
23 23 23 22 21 21 21 22 23 22 21 22 22 22 22 22 23 23 23 23 23 22 22 23 23 23 24 24 25 26 26 26 26 26 26 25 25 26 26 26 26 26 25 25
23 23 24 22 22 22 22 22 23 22 21 22 23 23 23 23 23 24 23 23 24 23 23 23 24 24 26 26 26 26 27 27 27 27 27 27 27 27 27 27 26 26 26 26
24 23 23 22 22 22 23 23 23 23 23 23 23 24 24 24 24 24 24 24 24 24 25 25 25 26 26 26 26 27 28 28 29 28 28 28 28 29 28 28 27 27 27 27
25 25 24 23 23 24 25 24 24 24 24 24 24 24 24 24 25 25 25 26 26 27 27 27 27 27 28 28 29 29 29 29 29 30 29 29 29 29 28 28 28 27 27 27
26 26 25 24 24 24 24 24 25 25 25 25 25 24 24 25 25 25 26 26 27 28 28 28 28 28 29 30 30 30 30 30 30 30 29 29 29 29 28 28 28 29 28 27
27 27 25 25 25 25 24 25 25 25 26 26 26 26 26 26 27 27 27 27 28 28 29 29 30 30 30 31 31 30 30 30 30 30 30 30 29 29 29 28 28 28 28 28
28 27 27 26 26 26 26 25 25 26 26 27 27 27 27 28 28 28 28 28 29 29 30 30 31 31 31 31 31 31 31 31 31 31 30 30 30 30 30 29 29 28 28 28
29 27 27 28 28 28 28 28 27 27 27 27 28 28 28 29 29 29 29 29 30 30 31 31 32 32 32 32 32 32 32 32 32 32 32 32 31 31 31 31 30 30 30 30
30 29 29 29 29 29 29 29 29 29 29 30 31 30 30 31 30 31 30 31 32 32 32 32 33 33 33 33 33 33 33 33 33 32 32 33 32 32 32 31 31 30 30 30
30 30 30 30 29 30 30 30 30 31 31 31 32 32 33 33 33 32 32 33 33 33 34 33 34 34 33 34 34 33 33 34 34 33 33 33 33 32 32 32 31 32 31 31
30 30 31 31 30 30 31 31 31 32 32 33 33 34 34 34 34 34 34 34 35 36 36 35 35 34 34 34 34 34 34 34 33 33 33 33 33 32 31 31 32 32 32 32
32 32 31 31 31 31 32 32 32 33 33 33 34 34 34 35 36 36 36 36 36 36 36 36 36 36 35 35 36 36 35 35 34 34 33 33 32 32 31 31 32 32 32 32
33 33 33 32 32 33 33 33 33 34 34 34 35 35 36 37 37 37 37 38 37 37 37 37 37 37 37 37 37 37 36 36 36 35 34 33 32 32 31 31 32 31 31 32
33 33 33 33 33 34 34 34 35 35 35 35 36 36 37 37 37 37 37 38 38 38 38 38 38 38 37 37 37 37 36 36 36 35 34 33 33 32 31 31 31 31 31 32
33 33 33 33 33 34 34 35 35 35 35 36 36 37 37 37 37 37 37 37 38 38 38 38 38 38 38 37 37 37 36 36 35 35 34 33 33 32 32 32 31 31 31 32
33 33 33 33 33 34 34 35 35 36 36 36 36 36 36 37 38 38 38 38 37 37 37 37 38 38 37 37 37 36 36 35 35 34 34 33 33 33 33 33 32 31 31 31
33 33 32 33 33 33 34 34 35 36 36 36 36 36 36 37 38 39 39 38 38 37 36 37 37 36 36 36 36 36 35 35 35 35 34 33 33 34 33 34 34 34 32 31
31 31 32 32 32 33 33 33 34 35 35 35 35 35 36 36 37 37 37 37 37 36 36 36 35 34 34 35 35 35 35 35 35 35 34 34 33 33 33 34 34 34 33 32
30 31 31 31 32 32 32 33 34 35 35 35 35 36 36 36 36 36 35 35 34 34 35 34 34 34 34 34 34 34 34 34 34 34 33 33 33 33 33 33 33 33 33 32
30 30 31 32 31 32 32 33 34 34 35 35 35 35 35 35 34 34 34 34 34 34 34 34 34 34 34 34 34 34 34 34 33 33 33 33 32 32 33 33 33 32 33 33
30 31 31 32 32 32 33 33 34 34 34 34 34 33 33 33 33 32 32 33 33 33 33 33 33 33 33 33 34 33 33 32 32 33 33 32 32 32 32 32 32 32 33 33
31 31 32 32 32 33 33 32 32 32 32 32 32 32 33 33 32 33 32 32 32 32 33 33 32 32 32 32 32 32 32 31 31 32 32 31 31 31 31 31 31 31 32 32
31 31 31 32 32 33 33 32 32 32 31 31 31 32 32 32 32 32 32 32 32 32 32 31 31 31 32 31 31 32 32 32 32 33 32 32 31 30 30 30 30 31 31 31
30 30 31 31 31 32 32 32 32 32 32 31 31 32 32 32 32 31 31 30 30 30 30 30 30 30 31 31 31 31 31 30 31 31 31 30 30 29 29 29 30 30 30 30
30 30 30 30 30 30 30 30 30 31 31 31 31 32 32 32 31 30 30 29 29 29 29 29 30 30 31 30 30 30 30 29 29 29 29 28 28 28 28 28 28 28 28 28
Wind_Direction
262 264 266 266 268 268 270 274 276 278 280 281 281 280 279 279 278 278 280 281 280 279 280 279 279 281 283 284 286 287 288 287 286 285 287 287 287 287 285 284 285 284 285 284
262 265 267 268 270 271 271 274 277 278 281 283 281 280 279 279 279 279 281 282 280 277 277 278 280 281 283 283 286 287 289 289 289 287 286 286 287 287 285 284 283 283 283 283
262 265 267 268 272 273 275 275 277 280 280 280 280 280 279 278 278 279 281 281 281 280 278 278 279 280 281 283 285 286 287 289 289 289 288 287 287 287 286 285 284 283 282 281
263 264 267 270 272 274 275 276 278 281 281 279 280 279 279 279 279 280 280 280 281 281 279 279 280 281 282 283 284 286 287 287 287 288 288 287 287 287 287 285 284 283 280 279
265 266 268 270 274 277 277 277 280 280 279 279 279 279 279 279 279 279 279 279 281 282 283 282 282 282 283 283 286 287 287 288 288 287 286 286 286 287 286 285 284 283 280 280
267 269 271 272 275 277 279 279 279 279 277 278 278 278 278 278 279 280 279 280 280 281 283 284 284 284 285 284 286 286 287 288 287 286 286 286 286 286 286 284 282 282 281 279
267 270 272 274 276 277 280 282 281 280 279 280 279 279 280 281 281 281 280 280 281 282 284 286 286 286 287 286 286 286 286 286 286 285 285 285 285 286 286 285 283 280 281 280
266 268 272 273 274 275 279 280 280 280 280 281 281 280 280 281 281 281 280 280 280 280 283 285 287 286 286 286 287 287 287 286 285 284 284 284 284 284 284 283 283 280 279 279
265 269 270 271 272 274 277 278 279 280 280 281 281 281 281 281 282 281 281 281 280 281 283 285 287 287 286 286 286 285 285 285 286 286 285 285 283 283 283 282 280 280 279 279
264 267 270 271 272 274 275 276 278 280 280 280 281 282 282 282 282 281 282 282 283 283 283 285 287 288 287 287 287 285 285 285 286 286 286 284 283 282 282 281 280 279 280 278
263 265 267 269 271 272 274 276 277 280 281 281 282 283 283 284 284 282 281 283 283 284 284 285 286 287 287 287 286 285 284 285 285 284 285 283 281 281 281 281 281 280 280 279
263 265 267 268 270 271 272 274 276 277 279 281 282 282 283 283 284 284 283 282 282 283 285 285 285 286 286 285 286 285 284 284 284 284 284 283 282 280 279 279 279 278 277 277
262 264 266 269 272 272 272 272 274 277 279 281 282 283 283 282 283 284 285 285 283 283 283 285 285 285 286 285 285 285 286 286 285 286 286 285 282 279 278 278 279 279 278 276
262 264 266 268 270 271 272 273 275 276 277 279 282 283 283 284 284 284 284 285 285 284 283 284 285 285 285 285 285 286 287 287 287 287 286 286 284 280 278 277 277 277 277 276
261 264 265 267 269 271 273 275 276 277 278 280 282 283 283 285 285 285 285 284 284 284 284 285 285 285 286 285 285 285 286 287 287 286 285 284 283 281 279 277 277 277 276 276
261 263 265 266 268 271 273 275 277 278 279 281 282 283 284 285 285 285 285 285 284 285 286 285 284 285 285 285 284 284 285 286 286 286 284 283 282 281 280 278 277 277 277 276
261 263 266 268 269 272 274 275 277 278 280 281 282 282 284 284 285 285 286 286 286 286 285 286 285 285 284 284 284 284 284 285 285 284 284 283 282 281 280 278 277 278 279 277
261 263 266 269 271 273 274 275 276 277 279 281 282 283 283 285 285 285 286 286 287 287 287 286 287 286 285 284 284 284 284 284 284 284 283 282 282 281 280 278 278 279 280 279
262 265 267 270 273 275 275 276 277 278 280 281 283 283 284 286 286 287 286 286 286 286 286 287 288 287 286 284 284 283 284 284 283 284 284 282 282 280 278 278 279 279 279 278
264 266 269 271 274 276 276 277 279 279 280 282 284 285 286 286 286 287 287 286 286 286 287 288 289 289 288 286 285 283 284 284 284 284 284 283 282 281 280 280 279 278 278 278
266 268 269 272 275 277 278 280 281 282 283 284 285 286 286 286 287 287 287 286 286 287 288 289 289 289 290 288 286 285 284 284 284 284 284 283 281 281 281 281 280 279 279 278
269 270 271 273 276 278 279 280 281 283 284 285 286 286 286 287 287 287 286 285 285 286 287 288 289 289 290 289 287 286 285 284 284 283 282 282 281 281 281 280 279 279 279 278
271 271 272 274 275 277 277 279 280 282 284 285 286 286 287 288 288 288 288 287 287 287 288 289 289 289 290 290 288 287 286 285 284 283 282 281 280 279 280 280 279 278 278 277
272 274 275 276 276 276 276 278 280 281 283 284 286 287 288 288 288 288 289 289 289 289 289 290 290 290 291 291 289 288 286 285 285 284 283 282 280 280 280 280 280 280 280 279
272 273 275 276 276 277 278 279 280 281 282 283 284 286 288 288 288 288 289 290 290 291 290 289 289 290 291 291 291 289 287 286 284 283 283 282 282 281 281 280 280 281 281 280
273 273 274 274 275 276 278 279 281 282 283 283 284 286 287 288 289 290 290 290 291 292 291 291 291 291 292 293 292 291 290 288 286 285 285 284 282 281 280 280 281 282 282 282
272 273 274 274 274 275 277 279 281 283 284 284 285 286 286 287 289 290 290 291 292 292 291 291 292 292 293 294 293 293 291 289 289 289 288 285 283 281 280 281 282 284 284 283